Location: Boursonne
(49.2024°N, 3.0468°E)
Time: 21:26:30
(UTC+00:00)

USA 305 - Pass Details

Date: 03 March 2021
Orbit: 567 x 574 km, 54.0° (Epoch: 13 April)

Event Time Altitude Azimuth Distance (km) Brightness Sun altitude
Rises 19:44:19 0° 287° (WNW) 2,781 8.0 -21.8°
Reaches altitude 10° 19:46:39 10° 294° (WNW) 1,881 6.7 -22.2°
Maximum altitude 19:50:47 46° 8° (N) 779 3.5 -22.9°
Enters shadow 19:51:05 45° 22° (NNE) 789 3.5 -22.9°
